Location: Clatteringshaws Loch
(55.0508°N, 4.2860°W)
Time: 08:00:11
(UTC+00:00)

Daily predictions for brighter satellites

Satellite Brightness Start Highest point End
(mag) Time Altitude Azimuth Time Altitude Azimuth Time Altitude Azimuth
ATLAS 5 CENTAUR R/B 3.0 17:02:49 10° WNW 17:07:39 36° N 17:12:58 10° ENE
Cosmos 1634 Rocket 4.3 17:01:48 10° N 17:07:44 44° ENE 17:13:35 10° SE
GEOS 3 Rocket 3.9 17:03:19 10° NE 17:08:28 67° NW 17:13:39 10° WSW
Okean 3 Rocket 3.6 17:04:08 10° S 17:08:36 83° E 17:13:09 10° NNE
Cosmos 1697 Rocket 4.1 17:04:43 10° W 17:09:39 30° NW 17:14:37 10° NNE
CORIOLIS 4.2 17:05:53 10° SE 17:11:09 61° ENE 17:16:28 10° NNW
Cosmos 1515 Rocket 4.0 17:07:31 10° N 17:11:48 42° ENE 17:16:03 10° SE
Cosmos 1151 Rocket 3.7 17:09:54 10° N 17:13:46 32° ENE 17:17:38 10° SE
Cosmos 2333 Rocket 3.6 17:12:52 10° SE 17:16:45 19° E 17:20:40 10° ENE
SJ-12 3.9 17:12:53 10° SSE 17:17:01 77° ENE 17:21:10 10° NNW
SPOT 3 Rocket 3.5 17:14:05 10° SSE 17:19:13 70° ENE 17:24:24 10° NNW
Lacrosse 5 2.0 17:14:48 10° WSW 17:19:52 74° SSE 17:24:57 10° ENE
Cosmos 1076 Rocket 3.5 17:15:56 10° S 17:20:10 69° E 17:24:27 10° NNE
CZ-4C R/B 3.2 17:17:09 10° W 17:22:49 43° N 17:29:20 10° ENE
Cosmos 2219 Rocket 3.3 17:18:24 10° SSE 17:22:58 26° ESE 17:27:33 10° NE
Cosmos 2278 Rocket 2.2 17:18:25 10° NNW 17:24:07 70° NE 17:29:48 10° SE
CZ-4 R/B 1.3 17:20:56 10° SSE 17:24:49 88° WSW 17:28:48 10° NNW
Cosmos 841 Rocket 4.2 17:20:12 10° SSE 17:24:56 34° ESE 17:29:39 10° NE
MTI 3.9 17:21:41 10° NNE 17:24:58 81° WNW 17:28:14 10° SSW
Cosmos 2322 Rocket 2.8 17:20:00 10° SW 17:25:36 57° NW 17:31:12 10° NNE
Cosmos 1943 Rocket 3.8 17:22:55 10° NNW 17:26:22 16° NNE 17:29:51 10° NE
Cosmos 2034 Rocket 4.4 17:21:21 10° NNW 17:27:41 71° W 17:34:01 10° S
Cosmos 2221 4.1 17:24:00 10° NNW 17:27:59 39° W 17:31:57 10° SSW
FREGAT/IRIS 4.4 17:31:01 10° E 17:32:43 14° ENE 17:34:25 10° NNE
CZ-2C R/B 2.5 17:27:53 10° SSE 17:32:50 81° WSW 17:37:38 10° NNW
Cosmos 1500 Rocket 4.3 17:29:48 10° SSE 17:33:36 30° E 17:37:27 10° NNE
Cosmos 468 Rocket 4.0 17:28:29 10° SSW 17:33:38 75° ESE 17:38:47 10° NNE
BREEZE M DEB (TANK) 4.1 17:30:25 10° W 17:34:20 26° SSW 17:36:27 10° SE
Cosmos 1844 4.2 17:30:31 10° NW 17:36:15 70° WSW 17:42:00 10° SSE
CZ-2C R/B 3.8 17:31:33 10° NNE 17:36:21 88° ESE 17:41:09 10° SSW
Lacrosse 4 Rocket 2.4 17:34:02 10° NNW 17:37:32 26° NNE 17:40:35 12° E
IDEFIX/ARIANE 42P 2.9 17:33:54 10° S 17:39:08 73° WSW 17:44:25 10° NNW
Cosmos 1238 4.5 17:40:17 10° SSW 17:43:51 79° WNW 17:46:58 10° N
SJ-6B 3.8 17:41:49 10° ESE 17:45:18 27° ENE 17:48:49 10° N
SL-16 R/B 4.2 17:42:13 10° N 17:47:30 30° NW 17:52:48 10° WSW
COSMOS 2441 4.3 17:43:42 10° SSE 17:48:34 85° ENE 17:53:27 10° NNW
USA 238 DEB 4.3 17:45:45 10° W 17:52:36 52° NNW 17:58:41 14° NE
USA 238 4.3 17:45:51 10° W 17:52:42 52° NNW 17:58:47 14° NE
Cosmos 2369 Rocket 3.4 17:48:58 10° NNW 17:53:33 24° NNE 17:56:36 16° ENE
Cosmos 2237 Rocket 3.1 17:51:28 10° SSE 17:56:13 29° ESE 17:59:45 16° ENE
Cosmos 1455 3.4 17:53:50 10° NNE 17:56:50 22° ENE 17:59:15 13° ESE
COSMOS 2428 2.7 17:51:38 10° SSW 17:57:18 67° ESE 18:02:51 11° NE
Cosmos 2279 Rocket 4.0 17:51:57 10° N 17:58:05 58° ENE 18:04:13 10° SSE
Cosmos 332 Rocket 4.0 17:55:26 10° S 18:00:07 52° ESE 18:04:30 12° NE
ATLAS 3B R/B 3.5 17:54:03 10° W 18:01:04 44° NNW 18:06:30 16° NE
Cosmos 1174 4.5 17:58:32 10° WSW 18:01:25 35° NNW 18:04:00 14° NNE
Blok-2BL 4.3 17:58:53 10° NW 18:02:04 31° NNE 18:03:31 22° ENE
Cosmos 2237 4.2 17:56:31 10° SSW 18:02:15 82° ESE 18:07:53 11° NE
Cosmos 1766 Rocket 4.0 17:57:56 10° SSW 18:02:22 65° WNW 18:06:48 10° N
SL-16 R/B 3.7 17:59:19 10° SE 18:02:37 16° E 18:03:05 16° E
Cosmos 1674 2.8 18:00:44 10° SSW 18:04:34 82° WNW 18:08:28 10° N
Cosmos 2297 3.7 17:59:32 10° NNW 18:05:16 71° NE 18:10:59 10° SE
Cosmos 2058 3.6 18:02:33 10° SSE 18:06:09 30° E 18:08:48 16° NE
COSMO-SKYMED 1 3.0 18:02:08 10° NNE 18:06:16 39° E 18:10:21 10° SSE
USA 215 3.7 18:00:19 10° SE 18:06:49 63° SSW 18:13:20 10° WNW
Cosmos 1707 Rocket 4.0 18:03:06 10° N 18:07:09 36° ENE 18:11:10 10° SE
Cosmos 1726 2.1 18:04:06 10° NNW 18:07:54 89° W 18:11:41 10° S
Cosmos 372 Rocket 4.0 18:04:51 10° NNW 18:09:59 81° WSW 18:15:05 10° SSE
Cosmos 1763 Rocket 3.4 18:05:49 10° SSW 18:11:02 82° ESE 18:16:08 10° NNE
USA 116 3.3 18:08:39 10° NNE 18:12:01 79° WNW 18:15:09 10° SSW
Cosmos 1340 Rocket 3.7 18:09:48 10° SSE 18:13:06 26° E 18:13:42 25° ENE
YAOGAN 1 3.9 18:09:39 10° S 18:13:48 44° W 18:17:59 10° NNW
SL-19 R/B 4.5 18:09:14 10° SE 18:14:43 49° ENE 18:20:04 10° NNW
Cosmos 44 4.3 18:10:16 10° S 18:14:44 30° ESE 18:16:39 23° E
Resurs 01 Rocket 2.3 18:11:04 10° ESE 18:14:59 31° ENE 18:18:55 10° N
Cosmos 2346 Rocket 4.4 18:08:57 10° S 18:15:12 78° E 18:21:27 10° NNE
Timation 1 Rocket 4.4 18:09:41 10° NW 18:15:46 90° N 18:21:48 10° SSE
Cosmos 1300 2.9 18:12:29 10° NNW 18:16:21 76° W 18:20:10 10° S
ALOS 2.8 18:12:52 10° SE 18:17:05 35° ENE 18:21:19 10° N
Orbus 7S? 3.7 18:14:07 10° WNW 18:17:20 79° SSW 18:23:24 12° ESE
SL-14 R/B 3.5 18:13:33 10° S 18:17:21 47° E 18:20:41 13° NNE
NOSS 3-2 (A) 4.0 18:11:15 10° WSW 18:17:33 58° NNW 18:23:00 17° NE
Cosmos 2180 Rocket 4.4 18:13:56 10° N 18:20:05 68° ENE 18:26:15 10° SSE
Aureole 2 Rocket 3.8 18:17:09 10° SSE 18:20:20 25° ESE 18:20:20 25° ESE
Cosmos 1484 Rocket 3.4 18:17:30 10° S 18:21:25 61° WSW 18:25:25 10° NNW
Cosmos 1869 4.4 18:18:32 10° N 18:21:30 26° NE 18:21:30 26° NE
Cosmos 2322 4.3 18:16:45 10° SW 18:22:22 57° NW 18:27:46 11° NNE
NOSS 3-2 (C) 4.0 18:16:22 10° WSW 18:22:41 61° NNW 18:27:59 18° NE
Resurs 1-3 4.3 18:21:23 24° E 18:23:00 31° ENE 18:26:52 10° N
Helios 1A 4.1 18:24:21 24° NE 18:24:21 24° NE 18:27:21 10° N
Cosmos 540 Rocket 3.7 18:21:31 10° S 18:26:27 47° ESE 18:29:33 22° NE
SL-16 R/B 3.7 18:22:22 10° W 18:27:22 31° NW 18:32:24 10° NNE
Cosmos 371 Rocket 3.2 18:24:49 10° SSW 18:29:35 68° ESE 18:32:56 20° NE
Meteor 1-11 4.3 18:29:22 10° S 18:34:58 60° E 18:40:40 10° NNE
SKYMED 3 4.5 18:32:04 10° NNE 18:36:26 72° ESE 18:40:46 10° S
Meteor 2-10 4.1 18:31:26 10° NNW 18:36:31 75° W 18:41:39 10° S
Cosmos 2333 4.2 18:31:16 10° SW 18:36:53 82° NW 18:41:19 17° NNE
COSMOS 2455 4.2 18:32:28 10° WNW 18:37:43 30° NNW 18:41:27 17° NE
Cosmos 2360 Rocket 3.2 18:35:31 10° WSW 18:40:52 43° NW 18:45:39 13° NNE
Meteor 1-28 Rocket 3.1 18:39:48 35° NE 18:41:10 59° E 18:44:51 10° S
Cosmos 2151 2.8 18:37:18 10° S 18:41:31 83° E 18:45:28 12° NNE
Cosmos 2242 Rocket 3.8 18:37:44 10° N 18:41:58 43° ENE 18:43:07 35° ESE
Cosmos 1980 Rocket 4.1 18:38:58 10° WNW 18:42:53 19° NNW 18:46:29 11° NNE
Cosmos 1980 3.7 18:38:13 10° SSW 18:43:47 61° ESE 18:46:55 26° NE
Cosmos 2084 Rocket 3.6 18:40:14 10° NW 18:43:52 42° NNE 18:44:10 41° NE
Lacrosse 5 rocket 3.6 18:41:54 10° W 18:44:48 21° SW 18:47:48 10° S
Cosmos 1743 Rocket 4.5 18:40:38 10° SSW 18:45:00 50° WNW 18:49:23 10° N
FENGYUN 3A 3.6 18:40:58 10° SE 18:46:14 60° ENE 18:51:33 10° N
CENTAUR R/B 2.7 18:40:08 10° SW 18:46:33 87° NW 18:51:09 25° NE
Cosmos 44 Rocket 3.3 18:45:01 10° SSW 18:50:05 68° SE 18:51:53 39° ENE
Thor Agena Rocket 4.1 18:44:55 10° NNE 18:50:07 60° WNW 18:55:14 10° SW
DMSP B5D1-3 4.4 18:45:06 10° NNE 18:50:13 70° ESE 18:55:18 10° S
FengYun 1-2 T 4.1 18:45:37 10° SSE 18:51:08 69° ENE 18:56:37 10° NNW
ATLAS 5 CENTAUR R/B 2.8 18:48:19 10° NW 18:53:32 42° NNE 18:55:14 34° ENE
METEOR-M 4.3 18:49:06 10° S 18:54:28 76° WSW 18:59:52 10° NNW
SKYMED 2 3.6 18:50:14 11° NNE 18:54:30 80° WNW 18:58:50 10° SSW
H-2A R/B 4.3 18:58:58 22° N 18:58:58 22° N 19:00:31 10° N
Cosmos 2333 Rocket 2.1 18:54:35 10° SSW 19:00:15 85° ESE 19:03:20 29° NE
Lacrosse 5 1.9 18:57:54 10° W 19:02:59 71° N 19:04:17 49° ENE
Spot 2 Rocket 3.3 18:58:39 10° SSE 19:03:41 76° ENE 19:08:45 10° NNW
Cosmos 1805 Rocket 3.4 18:59:25 10° S 19:03:51 69° E 19:05:05 45° NNE
FREGAT/IRIS 3.3 19:01:03 10° S 19:04:04 56° WSW 19:07:07 10° NNW
NOSS 0 Rocket 3.8 19:00:09 10° SSW 19:06:23 83° SE 19:09:45 29° NE
Cosmos 2219 Rocket 2.3 19:00:48 10° SW 19:06:27 75° NW 19:09:45 26° NNE
Cosmos 841 Rocket 4.2 19:01:31 10° SW 19:06:39 52° NW 19:10:40 17° NNE
Cosmos 2278 Rocket 4.2 19:03:01 10° NW 19:07:48 28° WSW 19:12:33 10° SSW
Cosmos 2322 Rocket 4.1 19:06:31 10° WNW 19:10:52 22° NNW 19:14:17 13° NNE
Cosmos 304 Rocket 3.9 19:06:35 10° S 19:11:00 54° SE 19:11:00 54° SE
Cosmos 1943 Rocket 3.0 19:06:57 10° NNW 19:11:38 32° NNE 19:11:38 32° NNE
CZ-4C R/B 3.1 19:06:34 10° WNW 19:12:41 46° NNE 19:14:38 37° NE
Cosmos 1867 3.8 19:08:56 10° NW 19:14:18 51° NNE 19:14:50 49° NE
HJ-1C 4.4 19:15:55 41° NNW 19:15:55 41° NNW 19:18:19 10° NNW
Lacrosse 4 Rocket 1.3 19:12:35 10° NW 19:16:41 75° SW 19:16:59 70° S
Envisat 4.3 19:20:25 25° NNE 19:20:25 25° NNE 19:22:57 10° N
SJ-6B 4.0 19:15:51 10° S 19:19:48 46° W 19:23:49 10° NNW
Sich 1 4.0 19:19:29 10° S 19:22:10 36° S 19:22:10 36° S
Cosmos 972 Rocket 4.2 19:21:02 10° NNW 19:25:20 52° NNE 19:25:20 52° NNE
Cosmos 2084 3.8 19:23:38 10° SW 19:26:37 53° WSW 19:26:37 53° WSW
Cosmos 1703 3.9 19:24:54 10° SSW 19:27:55 50° SW 19:27:55 50° SW
Cosmos 1455 3.2 19:29:09 10° NNW 19:32:47 45° W 19:34:32 26° SSW
Cosmos 1626 4.3 19:30:10 10° SSW 19:31:11 18° SSW 19:31:11 18° SSW
Cosmos 2369 Rocket 2.2 19:32:58 10° NNW 19:38:25 65° NE 19:38:25 65° NE
Cosmos 2237 Rocket 2.4 19:34:15 10° SW 19:39:52 69° NW 19:41:37 45° NNE
COSMOS 2428 4.0 19:36:45 10° WSW 19:42:00 36° NW 19:44:53 23° N
COSMO-SKYMED 1 4.2 19:38:48 12° N 19:42:22 33° WNW 19:46:16 10° SW
Spot 1 4.4 19:42:43 69° WSW 19:42:47 69° WSW 19:47:13 10° NNW
Cosmos 2058 4.4 19:39:17 10° SW 19:43:04 35° WNW 19:45:06 22° NNW
USA 238 DEB 4.3 19:38:10 10° WNW 19:44:52 44° N 19:46:07 40° NNE
USA 238 4.3 19:38:16 10° WNW 19:44:58 44° N 19:46:14 40° NNE
SL-16 R/B 2.3 19:40:09 10° SSW 19:45:01 63° S 19:45:01 63° S
Cosmos 1340 Rocket 4.1 19:45:46 10° SW 19:49:24 38° WNW 19:49:24 38° WNW
Resurs 01 Rocket 2.7 19:48:05 16° SSW 19:51:22 44° W 19:55:39 10° NNW
ATLAS 3B R/B 3.1 19:46:17 10° WNW 19:53:12 46° NNE 19:53:46 45° NNE
ALOS 3.4 19:50:04 10° SSW 19:54:29 41° W 19:58:57 10° NNW
Aureole 2 Rocket 4.4 19:51:49 10° SW 19:54:14 33° WSW 19:54:14 33° WSW
Cosmos 44 3.7 19:50:32 10° SW 19:55:07 64° W 19:55:07 64° W
S3M 4.4 19:51:17 10° N 19:56:07 49° NNE 19:56:07 49° NNE
NOSS 3-2 (A) 4.4 20:03:18 10° WNW 20:09:41 43° N 20:10:24 42° NNE
Nadezhda 4 Rocket 4.5 20:05:23 10° SSW 20:11:35 59° WNW 20:17:52 10° N
SL-16 R/B 4.3 20:09:45 10° NW 20:13:22 17° N 20:14:16 16° N
NOSS 3-2 (C) 4.4 20:08:26 10° WNW 20:14:48 43° N 20:15:26 42° NNE
COSMOS 2455 4.3 20:20:18 10° NW 20:24:36 27° N 20:24:36 27° N
Cosmos 2360 Rocket 4.2 20:22:25 10° WNW 20:26:23 19° NNW 20:27:26 18° N
Cosmos 1980 Rocket 4.3 20:25:40 10° NNW 20:28:15 16° N 20:28:15 16° N
Cosmos 1092 Rocket 4.5 20:24:30 10° SSW 20:30:45 59° WNW 20:37:03 10° N
CENTAUR R/B 3.4 20:31:32 10° W 20:38:02 48° NNW 20:38:21 47° N
ATLAS 5 CENTAUR R/B 3.2 20:33:06 10° NW 20:36:47 43° NW 20:36:47 43° NW
Cosmos 2333 Rocket 3.7 20:40:13 10° W 20:45:11 30° NW 20:45:22 30° NNW
Lacrosse 5 3.7 20:41:07 10° WNW 20:43:29 28° WNW 20:43:29 28° WNW
Cosmos 2219 Rocket 4.0 20:46:41 10° W 20:51:20 25° NNW 20:51:30 25° NNW
Cosmos 1943 Rocket 3.8 20:50:39 10° NW 20:53:10 28° NW 20:53:10 28° NW
Cosmos 2322 Rocket 4.5 20:53:42 10° NW 20:56:06 15° N 20:56:06 15° N
CZ-4C R/B 3.4 20:55:17 10° NW 20:59:50 48° NW 20:59:50 48° NW
Cosmos 2369 Rocket 4.2 21:17:28 10° NW 21:20:15 24° WNW 21:20:15 24° WNW
Cosmos 2237 Rocket 4.3 21:20:23 10° W 21:23:28 22° NW 21:23:28 22° NW
ATLAS 3B R/B 4.2 21:37:34 10° NW 21:41:01 31° NW 21:41:01 31° NW
